GSLV R/B (54149 NORAD) Tracking and Keplerian Element Data

This shows tracking and keplerian element data for the satellite.

Feedback or suggestion? Click here.




ElementValue
Catalog54149
NameGSLV R/B
Epoch Orbit437
Epoch Day325.15333597
Epoch Year2022
RAAN207.3127
Inclination87.3896
Eccentricity0.0025493
Argument of Perigee171.5952
Mean Anonmoly188.5707
Mean Motion14.87308382
Decay Rate1.08E-05
L11 54149U 22138AN 22325.15333597 .00001080 00000+0 11604-3 0 9992
L22 54149 87.3896 207.3127 0025493 171.5952 188.5707 14.87308382 4375



Live tracking and technical data element details for GSLV R/B (NORAD 54149). GSLV R/B can be tracked NOW for your location showing map with azimuth and elevation plus other details from your city location.







IsCatalogInMostPopularTable: catalog: 54149, numindb: 6
Update: records affected: 1



GetName: 54149 GSLV R/B

Hit Count: updated at: Sun, 04 Dec 2022 21:59:16 GMT